This is the latest recevied weather packets stored in our database for station/object EA1FBN. If no packets are shown the sender has not sent any weather packets the latest 1 day(s).
| Time | Temp. | Humidity | Pressure | Rain* | Wind** | Luminosity | Snow |
|---|---|---|---|---|---|---|---|
| 1777969510 | 8.33° C | 75% | 1016.1 hPa | 0.25 mm | 3.13 m/s, 127° | - | - |
| 1777969210 | 8.33° C | 75% | 1016.1 hPa | 0.25 mm | 2.68 m/s, 126° | - | - |
| 1777968910 | 8.33° C | 75% | 1016.1 hPa | 0.25 mm | 2.24 m/s, 124° | - | - |
| 1777968610 | 8.33° C | 75% | 1016 hPa | 0.25 mm | 1.79 m/s, 137° | - | - |
| 1777968310 | 8.33° C | 75% | 1016 hPa | 0.25 mm | 2.24 m/s, 145° | - | - |
| 1777968010 | 8.33° C | 75% | 1016 hPa | 0.25 mm | 2.68 m/s, 117° | - | - |
| 1777967710 | 8.33° C | 75% | 1016.1 hPa | 0.25 mm | 2.68 m/s, 148° | - | - |
| 1777967410 | 8.33° C | 75% | 1016.1 hPa | 0 mm | 2.24 m/s, 131° | - | - |
| 1777967110 | 8.33° C | 75% | 1016.1 hPa | 0 mm | 1.34 m/s, 135° | - | - |
| 1777966810 | 8.33° C | 75% | 1016.1 hPa | 0 mm | 1.79 m/s, 141° | - | - |
| 1777966511 | 7.78° C | 75% | 1016.1 hPa | 0 mm | 2.24 m/s, 143° | - | - |
| 1777966211 | 7.78° C | 72% | 1016.1 hPa | 0 mm | 2.24 m/s, 124° | - | - |
| 1777965911 | 7.78° C | 69% | 1016.1 hPa | 0 mm | 1.79 m/s, 109° | - | - |
| 1777965611 | 7.78° C | 65% | 1016.1 hPa | 0 mm | 1.34 m/s, 67° | - | - |
| 1777965311 | 7.22° C | 65% | 1016.1 hPa | 0 mm | 1.79 m/s, 86° | - | - |
| 1777965011 | 7.22° C | 64% | 1016.1 hPa | 0 mm | 1.34 m/s, 101° | - | - |
| 1777964711 | 6.67° C | 63% | 1016 hPa | 0 mm | 1.34 m/s, 101° | - | - |
| 1777964411 | 6.67° C | 62% | 1016.1 hPa | 0 mm | 1.34 m/s, 103° | - | - |
| 1777964111 | 6.67° C | 60% | 1016 hPa | 0 mm | 1.34 m/s, 73° | - | - |
| 1777963811 | 6.67° C | 57% | 1016.1 hPa | 0 mm | 0.89 m/s, 133° | - | - |
| 1777963511 | 6.67° C | 54% | 1016.1 hPa | 0 mm | 0.45 m/s, 122° | - | - |
| 1777963211 | 6.11° C | 52% | 1016.1 hPa | 0 mm | 0.89 m/s, 146° | - | - |
| 1777962911 | 6.11° C | 51% | 1016 hPa | 0 mm | 0.89 m/s, 101° | - | - |
| 1777962611 | 5.56° C | 51% | 1016 hPa | 0 mm | 0.89 m/s, 128° | - | - |
| 1777962311 | 5.56° C | 51% | 1016 hPa | 0 mm | 0.45 m/s, 120° | - | - |
* Rain latest hour (hover to see other rain measurements)
** Current wind speed in m/s (hover to see current wind gust speed)